AirNav   Duncan Aviation - Near you to keep you flying
 
 621 users online  

VA61 Lovettsville Vintage Aerodrome
Lovettsville, Virginia, USA

GOING TO LOVETTSVILLE?


FAA INFORMATION EFFECTIVE 03 NOVEMBER 2022

Location

FAA Identifier: VA61
Lat/Long: 39-15-53.6100N 077-39-13.1100W
39-15.893500N 077-39.218500W
39.2648917,-77.6536417
(estimated)
Elevation: 529 ft. / 161.2 m (surveyed)
Variation: 09W (1985)
From city: 1 mile SW of LOVETTSVILLE, VA
Time zone: UTC -5 (UTC -4 during Daylight Saving Time)
Zip code: 20180

Airport Operations

Airport use: Private use. Permission required prior to landing
Activation date: 11/1970
Control tower: no
ARTCC: WASHINGTON CENTER
FSS: LEESBURG FLIGHT SERVICE STATION
Attendance: IREG
Wind indicator: yes
Segmented circle: no

Airport Communications

WX AWOS-3 at JYO (12 nm S): 125.225 (703-777-3781)
WX AWOS-3 at FDK (16 nm NE): PHONE 301-600-1457
WX ASOS at MRB (17 nm NW): 119.925 (304-264-0988)

Nearby radio navigation aids

VOR radial/distance  VOR name  Freq  Var
MRBr136/11.6MARTINSBURG VORTAC112.1007W
FDKr244/(15.7)FREDERICK VOR109.0008W
AMLr344/21.6ARMEL VOR/DME113.5008W
HGRr167/(27.6)HAGERSTOWN VOR109.8007W
EMIr254/34.2WESTMINSTER VORTAC117.9008W
LDNr052/35.6LINDEN VORTAC114.3006W
DCAr319/37.7WASHINGTON VOR/DME111.0009W
CSNr021/38.7CASANOVA VORTAC116.3006W

 
NDB name  Hdg/Dist  Freq  Var  ID
GEORGETOWN318/31.832309WGTN --. - -.

Airport Services

Airframe service: MINOR
Powerplant service: MINOR

Runway Information

Runway 1/19

Dimensions: 3000 x 50 ft. / 914 x 15 m
Surface: turf
RUNWAY 1  RUNWAY 19
Traffic pattern: leftright

Airport Ownership and Management from official FAA records

Ownership: Privately-owned
Owner: THOMAS C. POMEROY
12582 LUTHERAN CHURCH ROAD
LOVETTSVILLE, VA 20180
Phone 571-919-7800
Manager: THOMAS C. POMEROY
12582 LUTHERAN CHURCH ROAD
LOVETTSVILLE, VA 20180
Phone (571) 919-7800

Airport Operational Statistics

Aircraft based on the field: 4
Single engine airplanes: 4
    

Additional Remarks

DEER AND GEESE INVOF OF ARPT.
CALL DURING WINTER AND EARLY SPRING OR AFTER HEAVY RAIN TO CONFIRM RWY CONDITION.
COLOCATED AEROBATIC PRACTICE AREA - CHECK NOTAMS FOR DAYS & HOURS OF USE.

Instrument Procedures

There are no published instrument procedures at VA61.

Some nearby airports with instrument procedures:

KJYO - Leesburg Executive Airport (12 nm S)
KFDK - Frederick Municipal Airport (16 nm NE)
9VA5 - Bluegrass Heliport (16 nm SW)
KMRB - Eastern WV Regional Airport/Shepherd Field (17 nm NW)
2VG2 - Upperville Airport (20 nm SW)
 
Loc | Ops | Rwys | IFR | FBO | Links
Com | Nav | Svcs | Stats | Notes
Area around VA61 (Lovettsville Vintage Aerodrome)
 
Road maps at: MapQuest Bing Google
 
Aerial photo
WARNING: Photo may not be current or correct
Aerial photo of VA61 (Lovettsville Vintage Aerodrome)
Photo taken 24-Aug-2014
looking north.

Do you have a better or more recent aerial photo of Lovettsville Vintage Aerodrome that you would like to share? If so, please send us your photo.

 
Sectional chart

 
Airport distance calculator
Flying to Lovettsville Vintage Aerodrome? Find the distance to fly.

From to VA61

Sunrise and sunset
Times for 01-Dec-2022
 Local
(UTC-5)
 Zulu
(UTC)
Morning civil twilight06:4311:43
Sunrise07:1212:12
Sunset16:4721:47
Evening civil twilight17:1722:17

Current date and time
Zulu (UTC)  01-Dec-2022 06:23:29
Local (UTC-5)  01-Dec-2022 01:23:29
 
METAR
KJYO 
13nm S 
010555Z AUTO 31009KT 10SM CLR 02/M05 A3011 RMK AO2
KFDK 
16nm NE 
010600Z AUTO 27007KT 7SM -SN CLR 03/M06 A3009 RMK AO2
KMRB 
17nm NW 
010553Z AUTO 27014KT 10SM BKN055 03/M08 A3008 RMK AO2 PK WND 26026/0535 SLP189 T00281083 10067 20028 53012 $
KIAD 
22nm SE 
010552Z 27004KT 10SM CLR 03/M08 A3009 RMK AO2 SLP192 T00331083 10094 20033 51016
KGAI 
23nm E 
010556Z AUTO 30016G21KT 10SM CLR 03/M07 A3008 RMK AO2 SLP202 T00281072 10078 20028 51014
KOKV 
24nm W 
010555Z AUTO 27011KT 10SM CLR 02/M08 A3008 RMK AO2
TAF
KMRB 
17nm NW 
010532Z 0106/0206 28012G24KT P6SM FEW040 FM010900 28008G16KT P6SM FEW040 FM011300 29014G24KT P6SM SKC FM011800 30010G18KT P6SM SCT250 FM012100 30008KT P6SM BKN250 FM020000 VRB03KT P6SM BKN250
NOTAMs
Click for the latest NOTAMs
NOTAMs are issued by the DoD/FAA and will open in a separate window not controlled by AirNav.

 

 
 

Would you like to see your business listed on this page?

 If your business provides an interesting product or service to pilots, flight crews, aircraft, or users of the Lovettsville Vintage Aerodrome, you should consider listing it here.  To start the listing process, click on the button below
 
Add a business
 

Other Pages about Lovettsville Vintage Aerodrome

Update a link
 
Copyright © AirNav, LLC. All rights reserved. Privacy Policy  Contact